FW4028 Weather Reports


Display with metric or nautical units.
time (UTC)temp
F
wind
direction
speed
MPH
gust
MPH
rain 1hr
in
rain 24hr
in
rain mn
in
humidity
%
barometer
mb
20200129110210 10 360 0.0 0.0 0.00 0.00 0.00 64 1010.9
20200129104604 10 360 0.0 0.0 0.00 0.00 0.00 63 1010.8
20200129103206 11 360 0.0 0.0 0.00 0.00 0.00 61 1010.5
20200129101635 11 360 0.0 0.0 0.00 0.00 0.00 63 1010.5
20200129100039 12 360 0.0 0.0 0.00 0.00 0.00 64 1010.2
20200129094525 13 360 0.0 0.0 0.00 0.00 0.00 63 1010.1
20200129093058 14 360 0.0 0.0 0.00 0.00 0.00 63 1010.0
20200129091520 15 360 0.0 0.0 0.00 0.00 0.00 63 1009.8
20200129090030 15 360 0.0 0.0 0.00 0.00 0.00 63 1009.6
20200129084509 16 360 0.0 0.0 0.00 0.00 0.00 61 1009.4
20200129083017 17 360 0.0 0.0 0.00 0.00 0.00 60 1009.4
20200129081501 17 360 0.0 0.0 0.00 0.00 0.00 61 1009.5
20200129080246 18 360 0.0 0.0 0.00 0.00 0.00 60 1009.4
20200129074638 18 360 0.0 0.0 0.00 0.00 0.00 59 1009.3
20200129073350 18 360 0.0 0.0 0.00 0.00 0.00 63 1009.3
20200129071618 18 360 0.0 0.0 0.00 0.00 0.00 67 1009.4
20200129070136 19 360 0.0 0.0 0.00 0.00 0.00 70 1009.2
20200129064658 19 360 0.0 0.0 0.00 0.00 0.00 72 1009.0
20200129063203 20 360 0.0 0.0 0.00 0.00 0.00 72 1008.8
20200129061714 21 360 0.0 0.0 0.00 0.00 0.00 72 1008.8
20200129060128 21 360 0.0 0.0 0.00 0.00 0.00 71 1008.6
20200129054642 22 360 0.0 0.0 0.00 0.00 0.00 70 1008.4
20200129053048 22 360 0.0 0.0 0.00 0.00 0.00 72 1008.2
20200129051603 23 360 0.0 0.0 0.00 0.00 0.00 71 1008.3
20200129050152 23 360 0.0 0.0 0.00 0.00 0.00 71 1008.1
20200129044627 23 360 0.0 0.0 0.00 0.00 0.00 70 1008.0
20200129043027 23 360 0.0 0.0 0.00 0.00 0.00 66 1007.9
20200129041532 24 360 0.0 0.0 0.00 0.00 0.00 60 1007.9
20200129040022 23 360 0.0 0.0 0.00 0.00 0.00 43 1007.7
20200129034510 24 360 0.0 0.0 0.00 0.00 0.00 49 1007.6
20200129033002 24 360 0.0 0.0 0.00 0.00 0.00 58 1007.5
20200129031704 24 360 0.0 0.0 0.00 0.00 0.00 60 1007.4
20200129030142 24 360 0.0 0.0 0.00 0.00 0.00 59 1007.3
20200129024657 24 360 0.0 0.0 0.00 0.00 0.00 60 1007.2
20200129023125 24 360 0.0 0.0 0.00 0.00 0.00 60 1007.2
20200129021632 24 360 0.0 0.0 0.00 0.00 0.00 61 1007.0
20200129020208 24 360 0.0 0.0 0.00 0.00 0.00 60 1007.0
20200129014618 24 360 0.0 0.0 0.00 0.00 0.00 59 1006.8
20200129013111 24 360 0.0 0.0 0.00 0.00 0.00 59 1006.8
20200129011534 24 360 0.0 0.0 0.00 0.00 0.00 59 1006.7
20200129010133 24 360 0.0 0.0 0.00 0.00 0.00 61 1006.6
20200129004520 24 360 0.0 0.0 0.00 0.00 0.00 62 1006.5
20200129003011 24 360 0.0 0.0 0.00 0.00 0.00 62 1006.4
20200129001516 24 360 0.0 0.0 0.00 0.00 0.00 64 1006.4
20200129000002 24 360 0.0 0.0 0.00 0.00 0.00 65 1006.3
20200128234824 24 360 0.0 0.0 0.00 0.00 0.00 67 1006.2
20200128233230 24 360 0.0 0.0 0.00 0.00 0.00 68 1006.1
20200128231702 25 360 0.0 0.0 0.00 0.00 0.00 68 1005.9
20200128230209 25 360 0.0 0.0 0.00 0.00 0.00 67 1005.9
20200128224615 25 360 0.0 0.0 0.00 0.00 0.00 64 1005.7
20200128223152 25 360 0.0 0.0 0.00 0.00 0.00 61 1005.5
20200128221616 25 360 0.0 0.0 0.00 0.00 0.00 62 1005.2
20200128220107 25 360 0.0 0.0 0.00 0.00 0.00 62 1005.0
20200128214532 26 360 0.0 0.0 0.00 0.00 0.00 62 1004.9
20200128213035 26 360 0.0 0.0 0.00 0.00 0.00 62 1004.6
20200128211522 26 360 0.0 0.0 0.00 0.00 0.00 63 1004.5
20200128210021 26 360 0.0 0.0 0.00 0.00 0.00 64 1004.3
20200128204518 26 360 0.0 0.0 0.00 0.00 0.00 64 1004.1
20200128203238 26 360 0.0 0.0 0.00 0.00 0.00 63 1004.0
20200128201655 26 360 0.0 0.0 0.00 0.00 0.00 65 1003.9
20200128200246 26 360 0.0 0.0 0.00 0.00 0.00 66 1003.8
20200128194642 26 360 0.0 0.0 0.00 0.00 0.00 67 1003.4
20200128193152 26 360 0.0 0.0 0.00 0.00 0.00 69 1003.3
20200128191656 26 360 0.0 0.0 0.00 0.00 0.00 68 1003.2
20200128190127 26 360 0.0 0.0 0.00 0.00 0.00 69 1003.1
20200128184626 26 360 0.0 0.0 0.00 0.00 0.00 69 1003.2
20200128183140 26 360 0.0 0.0 0.00 0.00 0.00 70 1003.2
20200128181605 27 360 0.0 0.0 0.00 0.00 0.00 67 1003.1
20200128180022 26 360 0.0 0.0 0.00 0.00 0.00 67 1003.0
20200128174539 27 360 0.0 0.0 0.00 0.00 0.00 69 1003.2
20200128173010 27 360 0.0 0.0 0.00 0.00 0.00 70 1003.1
20200128171517 27 360 0.0 0.0 0.00 0.00 0.00 69 1003.2
20200128170209 27 360 0.0 0.0 0.00 0.00 0.00 68 1003.2
20200128164726 27 360 0.0 0.0 0.00 0.00 0.00 69 1003.3
20200128163137 27 360 0.0 0.0 0.00 0.00 0.00 69 1003.3
20200128161738 28 360 0.0 0.0 0.00 0.00 0.00 69 1003.4
20200128160111 29 360 0.0 0.0 0.00 0.00 0.00 68 1003.5
20200128154619 29 360 0.0 0.0 0.00 0.00 0.00 65 1003.5
20200128153247 28 360 0.0 0.0 0.00 0.00 0.00 60 1003.4
20200128151603 28 360 0.0 0.0 0.00 0.00 0.00 57 1003.3
20200128150101 28 360 0.0 0.0 0.00 0.00 0.00 59 1003.1
20200128144601 28 360 0.0 0.0 0.00 0.00 0.00 55 1003.0
20200128143104 27 360 0.0 0.0 0.00 0.00 0.00 54 1002.9
20200128141514 27 360 0.0 0.0 0.00 0.00 0.00 57 1002.8
20200128140008 28 360 0.0 0.0 0.00 0.00 0.00 57 1002.5
20200128134829 28 360 0.0 0.0 0.00 0.00 0.00 50 1002.4
20200128134512 28 360 0.0 0.0 0.00 0.00 0.00 50 1002.4
20200128133220 27 360 0.0 0.0 0.00 0.00 0.00 47 1002.3
20200128131634 27 360 0.0 0.0 0.00 0.00 0.00 32 1002.0
20200128130254 27 360 0.0 0.0 0.00 0.00 0.00 30 1002.0
20200128124632 27 360 0.0 0.0 0.00 0.00 0.00 31 1001.7
20200128123120 27 360 0.0 0.0 0.00 0.00 0.00 36 1001.6
20200128121609 27 360 0.0 0.0 0.00 0.00 0.00 35 1001.3
20200128120113 27 360 0.0 0.0 0.00 0.00 0.00 27 1001.1
20200128114555 27 360 0.0 0.0 0.00 0.00 0.00 28 1001.0
20200128113025 27 360 0.0 0.0 0.00 0.00 0.00 25 1001.0
20200128111539 28 360 0.0 0.0 0.00 0.00 0.00 24 1000.7